Home   Weather   Tau   Past weeks

Flag for Norway Past Weather in Tau, Norway — Yesterday and Last 2 Weeks

45 °F

Partly sunny.

Feels Like: 45 °F
Forecast: 42 / 47 °F
Wind: No wind

Location: Stavanger / Sola

Current Time: Oct 22, 2016 at 10:56:11 AM

Latest Report: Oct 22, 2016 at 10:20 AM

Visibility: N/A

Pressure: 30.24 "Hg

Humidity: 61%

Dew Point: 32 °F

Location of TauLocation

Past Weather in Tau — Graph


Tau Temperature Yesterday

Maximum temperature yesterday: 50 °F (at 12:20 PM)
Minimum temperature yesterday: 37 °F (at 9:50 PM)
Average temperature yesterday: 45 °F

High & Low Weather Summary for the Past Weeks

High61 °F (Oct 7, 1:50 PM)100% (Oct 20, 2:50 AM)30.54 "Hg (Oct 20, 2:50 AM)
Low36 °F (Oct 9, 5:50 AM)30% (Oct 15, 12:20 PM)29.89 "Hg (Oct 18, 4:20 PM)
Average48 °F67%30.29 "Hg
* Reported Oct 7 9:20 AM — Oct 22 9:20 AM, Tau, Weather by CustomWeather, © 2016

Note: Actual official high and low records may vary slightly from our data, if they occured in-between our weather recording intervals... More about our weather records


Tau Weather History for the Previous 24 Hours

Scroll right to see more
Time TempWeatherWind HumidityBarometerVisibility
9:20 AM
Sat, Oct 22
43 °FPartly sunny.2 mph66%30.24 "HgN/A
8:50 AM43 °FPartly sunny.1 mph71%30.24 "HgN/A
8:20 AM43 °FPassing clouds.2 mph71%30.24 "HgN/A
7:50 AM45 °FPassing clouds.1 mph61%30.24 "HgN/A
7:20 AM45 °FPassing clouds.7 mph61%30.24 "HgN/A
6:50 AM45 °FPassing clouds.6 mph61%30.24 "HgN/A
6:20 AM45 °FPassing clouds.3 mph61%30.27 "HgN/A
5:50 AM45 °FPassing clouds.6 mph61%30.27 "HgN/A
4:50 AM45 °FPassing clouds.No wind61%30.27 "HgN/A
3:50 AM41 °FPassing clouds.6 mph76%30.27 "HgN/A
2:50 AM39 °FPassing clouds.No wind81%30.27 "HgN/A
1:50 AM37 °FPartly cloudy.1 mph81%30.27 "HgN/A
12:50 AM39 °FPartly cloudy.No wind81%30.27 "HgN/A
12:20 AM37 °FPassing clouds.No wind81%30.27 "HgN/A
11:50 PM
Fri, Oct 21
37 °FPassing clouds.1 mph81%30.27 "HgN/A
11:20 PM37 °FPassing clouds.No wind81%30.27 "HgN/A
10:50 PM37 °FPassing clouds.2 mph81%30.27 "HgN/A
10:20 PM37 °FPassing clouds.No wind81%30.27 "HgN/A
9:50 PM37 °FPassing clouds.1 mph81%30.27 "HgN/A
9:20 PM39 °FPassing clouds.1 mph75%30.27 "HgN/A
8:50 PM39 °FPassing clouds.3 mph70%30.27 "HgN/A
8:20 PM41 °FPassing clouds.2 mph70%30.24 "HgN/A
7:50 PM41 °FPassing clouds.No wind70%30.24 "HgN/A
7:20 PM43 °FPassing clouds.No wind66%30.24 "HgN/A
6:50 PM45 °FPassing clouds.1 mph61%30.24 "HgN/A
6:20 PM46 °FPassing clouds.3 mph57%30.24 "HgN/A
5:50 PM48 °FPassing clouds.3 mph54%30.24 "HgN/A
5:20 PM50 °FPassing clouds.5 mph50%30.24 "HgN/A
4:50 PM50 °FPassing clouds.7 mph47%30.24 "HgN/A
4:20 PM50 °FPassing clouds.5 mph50%30.24 "HgN/A
3:50 PM50 °FPassing clouds.7 mph47%30.24 "HgN/A
3:20 PM48 °FPassing clouds.9 mph50%30.24 "HgN/A
2:50 PM48 °FPassing clouds.9 mph50%30.24 "HgN/A
2:20 PM48 °FPassing clouds.7 mph54%30.24 "HgN/A
1:50 PM50 °FPassing clouds.9 mph54%30.27 "HgN/A
1:20 PM50 °FPassing clouds.10 mph54%30.27 "HgN/A
12:50 PM50 °FSunny.9 mph58%30.27 "Hg10 mi
12:20 PM50 °FSunny.5 mph58%30.27 "Hg10 mi
11:50 AM48 °FSunny.3 mph71%30.27 "Hg10 mi
11:20 AM48 °FBroken clouds.3 mph76%30.27 "HgN/A
10:50 AM46 °FBroken clouds.2 mph76%30.27 "HgN/A
10:20 AM45 °FBroken clouds.No wind81%30.27 "HgN/A
Weather by CustomWeather, © 2016

See weather overviewHow to use our weather pages